Time,TemperatureF,DewpointF,PressureIn,WindDirection,WindDirectionDegrees,WindSpeedMPH,WindSpeedGustMPH,Humidity,HourlyPrecipIn,Conditions,Clouds,dailyrainin,SolarRadiationWatts/m^2,SoftwareType,DateUTC
2013-02-09 00:11:00,35.0,29.0,-100.00,North,8,6.0,12.0,80,0.00,,,0.00,0.000000,,2013-02-09 09:11:00,
2013-02-09 00:21:00,35.0,29.0,-100.00,North,8,6.0,12.0,80,0.00,,,0.00,0.000000,,2013-02-09 09:21:00,
2013-02-09 00:31:00,35.0,29.0,-100.00,North,8,6.0,12.0,80,0.00,,,0.00,0.000000,,2013-02-09 09:31:00,
2013-02-09 00:41:00,35.0,29.0,-100.00,North,8,6.0,12.0,80,0.00,,,0.00,0.000000,,2013-02-09 09:41:00,
2013-02-09 00:51:00,35.0,29.0,-100.00,North,8,6.0,12.0,80,0.00,,,0.00,0.000000,,2013-02-09 09:51:00,
2013-02-09 01:21:00,35.0,29.0,-100.00,NNE,27,5.0,14.0,78,0.00,,,0.00,0.000000,,2013-02-09 10:21:00,
2013-02-09 01:31:00,35.0,29.0,-100.00,NNE,27,5.0,14.0,78,0.00,,,0.00,0.000000,,2013-02-09 10:31:00,
2013-02-09 01:41:00,35.0,29.0,-100.00,NNE,27,5.0,14.0,78,0.00,,,0.00,0.000000,,2013-02-09 10:41:00,
2013-02-09 01:51:00,35.0,29.0,-100.00,NNE,27,5.0,14.0,78,0.00,,,0.00,0.000000,,2013-02-09 10:51:00,
2013-02-09 02:11:00,35.0,30.0,-100.00,NNE,27,9.0,22.0,81,0.00,,,0.00,0.000000,,2013-02-09 11:11:00,
2013-02-09 02:21:00,35.0,30.0,-100.00,NNE,27,9.0,22.0,81,0.00,,,0.00,0.000000,,2013-02-09 11:21:00,
2013-02-09 02:31:00,35.0,30.0,-100.00,NNE,27,9.0,22.0,81,0.00,,,0.00,0.000000,,2013-02-09 11:31:00,
2013-02-09 02:41:00,35.0,30.0,-100.00,NNE,27,9.0,22.0,81,0.00,,,0.00,0.000000,,2013-02-09 11:41:00,
2013-02-09 02:52:00,35.0,30.0,-100.00,NNE,27,9.0,22.0,81,0.00,,,0.00,0.000000,,2013-02-09 11:52:00,
2013-02-09 03:11:00,35.0,29.0,-100.00,NE,36,8.0,23.0,79,0.00,,,0.00,0.000000,,2013-02-09 12:11:00,
2013-02-09 03:21:00,35.0,29.0,-100.00,NE,36,8.0,23.0,79,0.00,,,0.00,0.000000,,2013-02-09 12:21:00,
2013-02-09 03:32:00,35.0,29.0,-100.00,NE,36,8.0,23.0,79,0.00,,,0.00,0.000000,,2013-02-09 12:32:00,
2013-02-09 03:42:00,35.0,29.0,-100.00,NE,36,8.0,23.0,79,0.00,,,0.00,0.000000,,2013-02-09 12:42:00,
2013-02-09 03:52:00,35.0,29.0,-100.00,NE,36,8.0,23.0,79,0.00,,,0.00,0.000000,,2013-02-09 12:52:00,
2013-02-09 04:21:00,35.0,28.0,-100.00,NE,43,8.0,21.0,75,0.00,,,0.00,0.000000,,2013-02-09 13:21:00,
2013-02-09 04:32:00,35.0,28.0,-100.00,NE,43,8.0,21.0,75,0.00,,,0.00,0.000000,,2013-02-09 13:32:00,
2013-02-09 04:42:00,35.0,28.0,-100.00,NE,43,8.0,21.0,75,0.00,,,0.00,0.000000,,2013-02-09 13:42:00,
2013-02-09 04:51:00,35.0,28.0,-100.00,NE,43,8.0,21.0,75,0.00,,,0.00,0.000000,,2013-02-09 13:51:00,
2013-02-09 05:11:00,34.0,32.0,-100.00,NNE,29,8.0,20.0,91,0.00,,,0.00,0.000000,,2013-02-09 14:11:00,
2013-02-09 05:21:00,34.0,32.0,-100.00,NNE,29,8.0,20.0,91,0.00,,,0.00,0.000000,,2013-02-09 14:21:00,
2013-02-09 05:31:00,34.0,32.0,-100.00,NNE,29,8.0,20.0,91,0.00,,,0.00,0.000000,,2013-02-09 14:31:00,
2013-02-09 05:41:00,34.0,32.0,-100.00,NNE,29,8.0,20.0,91,0.00,,,0.00,0.000000,,2013-02-09 14:41:00,
2013-02-09 05:52:00,34.0,32.0,-100.00,NNE,29,8.0,20.0,91,0.00,,,0.00,0.000000,,2013-02-09 14:52:00,
2013-02-09 06:11:00,35.0,31.0,-100.00,NE,38,7.0,22.0,85,0.00,,,0.00,0.000000,,2013-02-09 15:11:00,
2013-02-09 06:21:00,35.0,31.0,-100.00,NE,38,7.0,22.0,85,0.00,,,0.00,0.000000,,2013-02-09 15:21:00,
2013-02-09 06:31:00,35.0,31.0,-100.00,NE,38,7.0,22.0,85,0.00,,,0.00,0.000000,,2013-02-09 15:31:00,
2013-02-09 06:41:00,35.0,31.0,-100.00,NE,38,7.0,22.0,85,0.00,,,0.00,0.000000,,2013-02-09 15:41:00,
2013-02-09 06:51:00,35.0,31.0,-100.00,NE,38,7.0,22.0,85,0.00,,,0.00,0.000000,,2013-02-09 15:51:00,
2013-02-09 07:11:00,36.0,29.0,-100.00,NE,51,7.0,21.0,75,0.00,,,0.00,0.000000,,2013-02-09 16:11:00,
2013-02-09 07:22:00,36.0,29.0,-100.00,NE,51,7.0,21.0,75,0.00,,,0.00,0.000000,,2013-02-09 16:22:00,
2013-02-09 07:31:00,36.0,29.0,-100.00,NE,51,7.0,21.0,75,0.00,,,0.00,0.000000,,2013-02-09 16:31:00,
2013-02-09 07:41:00,36.0,29.0,-100.00,NE,51,7.0,21.0,75,0.00,,,0.00,0.000000,,2013-02-09 16:41:00,
2013-02-09 07:51:00,36.0,29.0,-100.00,NE,51,7.0,21.0,75,0.00,,,0.00,0.000000,,2013-02-09 16:51:00,
2013-02-09 08:21:00,37.0,27.0,-100.00,ENE,75,8.0,24.0,68,0.00,,,0.00,0.000000,,2013-02-09 17:21:00,
2013-02-09 08:32:00,37.0,27.0,-100.00,ENE,75,8.0,24.0,68,0.00,,,0.00,0.000000,,2013-02-09 17:32:00,
2013-02-09 08:41:00,37.0,27.0,-100.00,ENE,75,8.0,24.0,68,0.00,,,0.00,0.000000,,2013-02-09 17:41:00,
2013-02-09 08:52:00,37.0,27.0,-100.00,ENE,75,8.0,24.0,68,0.00,,,0.00,0.000000,,2013-02-09 17:52:00,
2013-02-09 09:12:00,38.0,28.0,-100.00,East,80,6.0,21.0,68,0.00,,,0.00,0.000000,,2013-02-09 18:12:00,
2013-02-09 09:23:00,38.0,28.0,-100.00,East,80,6.0,21.0,68,0.00,,,0.00,0.000000,,2013-02-09 18:23:00,
2013-02-09 09:31:00,38.0,28.0,-100.00,East,80,6.0,21.0,68,0.00,,,0.00,0.000000,,2013-02-09 18:31:00,
2013-02-09 09:41:00,38.0,28.0,-100.00,East,80,6.0,21.0,68,0.00,,,0.00,0.000000,,2013-02-09 18:41:00,
2013-02-09 09:51:00,38.0,28.0,-100.00,East,80,6.0,21.0,68,0.00,,,0.00,0.000000,,2013-02-09 18:51:00,
2013-02-09 10:11:00,38.0,28.0,-100.00,ESE,108,7.0,19.0,68,0.00,,,0.00,8.000000,,2013-02-09 19:11:00,
2013-02-09 10:22:00,38.0,28.0,-100.00,ESE,108,7.0,19.0,68,0.00,,,0.00,8.000000,,2013-02-09 19:22:00,
2013-02-09 10:31:00,38.0,28.0,-100.00,ESE,108,7.0,19.0,68,0.00,,,0.00,8.000000,,2013-02-09 19:31:00,
2013-02-09 10:41:00,38.0,28.0,-100.00,ESE,108,7.0,19.0,68,0.00,,,0.00,8.000000,,2013-02-09 19:41:00,
2013-02-09 10:51:00,38.0,28.0,-100.00,ESE,108,7.0,19.0,68,0.00,,,0.00,8.000000,,2013-02-09 19:51:00,
2013-02-09 11:11:00,39.0,30.0,-100.00,East,97,12.0,22.0,70,0.00,,,0.00,87.000000,,2013-02-09 20:11:00,
2013-02-09 11:21:00,39.0,30.0,-100.00,East,97,12.0,22.0,70,0.00,,,0.00,87.000000,,2013-02-09 20:21:00,
2013-02-09 11:31:00,39.0,30.0,-100.00,East,97,12.0,22.0,70,0.00,,,0.00,87.000000,,2013-02-09 20:31:00,
2013-02-09 11:41:00,39.0,30.0,-100.00,East,97,12.0,22.0,70,0.00,,,0.00,87.000000,,2013-02-09 20:41:00,
2013-02-09 11:52:00,39.0,30.0,-100.00,East,97,12.0,22.0,70,0.00,,,0.00,87.000000,,2013-02-09 20:52:00,
2013-02-09 12:11:00,40.0,31.0,-100.00,East,90,8.0,17.0,69,0.08,,,0.08,151.000000,,2013-02-09 21:11:00,
2013-02-09 12:21:00,40.0,31.0,-100.00,East,90,8.0,17.0,69,0.08,,,0.08,151.000000,,2013-02-09 21:21:00,
2013-02-09 12:31:00,40.0,31.0,-100.00,East,90,8.0,17.0,69,0.08,,,0.08,151.000000,,2013-02-09 21:31:00,
2013-02-09 12:41:00,40.0,31.0,-100.00,East,90,8.0,17.0,69,0.08,,,0.08,151.000000,,2013-02-09 21:41:00,
2013-02-09 12:51:00,40.0,31.0,-100.00,East,90,8.0,17.0,69,0.08,,,0.08,151.000000,,2013-02-09 21:51:00,
2013-02-09 13:11:00,43.0,34.0,-100.00,East,100,4.0,21.0,70,0.06,,,0.14,247.000000,,2013-02-09 22:11:00,
2013-02-09 13:41:00,43.0,34.0,-100.00,East,100,4.0,21.0,70,0.06,,,0.14,247.000000,,2013-02-09 22:41:00,
2013-02-09 13:51:00,43.0,34.0,-100.00,East,100,4.0,21.0,70,0.06,,,0.14,247.000000,,2013-02-09 22:51:00,
2013-02-09 14:11:00,38.0,30.0,-100.00,ENE,78,6.0,12.0,72,0.04,,,0.18,217.000000,,2013-02-09 23:11:00,
2013-02-09 14:21:00,38.0,30.0,-100.00,ENE,78,6.0,12.0,72,0.04,,,0.18,217.000000,,2013-02-09 23:21:00,
2013-02-09 14:31:00,38.0,30.0,-100.00,ENE,78,6.0,12.0,72,0.04,,,0.18,217.000000,,2013-02-09 23:31:00,
2013-02-09 14:41:00,38.0,30.0,-100.00,ENE,78,6.0,12.0,72,0.04,,,0.18,217.000000,,2013-02-09 23:41:00,
2013-02-09 14:52:00,38.0,30.0,-100.00,ENE,78,6.0,12.0,72,0.04,,,0.18,217.000000,,2013-02-09 23:52:00,
2013-02-09 15:21:00,40.0,33.0,-100.00,ENE,71,6.0,12.0,77,0.01,,,0.19,191.000000,,2013-02-10 00:21:00,
2013-02-09 15:32:00,40.0,33.0,-100.00,ENE,71,6.0,12.0,77,0.01,,,0.19,191.000000,,2013-02-10 00:32:00,
2013-02-09 15:41:00,40.0,33.0,-100.00,ENE,71,6.0,12.0,77,0.01,,,0.19,191.000000,,2013-02-10 00:41:00,
2013-02-09 15:51:00,40.0,33.0,-100.00,ENE,71,6.0,12.0,77,0.01,,,0.19,191.000000,,2013-02-10 00:51:00,
2013-02-09 16:12:00,40.0,30.0,-100.00,East,99,13.0,36.0,66,0.00,,,0.19,132.000000,,2013-02-10 01:12:00,
2013-02-09 16:21:00,40.0,30.0,-100.00,East,99,13.0,36.0,66,0.00,,,0.19,132.000000,,2013-02-10 01:21:00,
2013-02-09 16:31:00,40.0,30.0,-100.00,East,99,13.0,36.0,66,0.00,,,0.19,132.000000,,2013-02-10 01:31:00,
2013-02-09 16:41:00,40.0,30.0,-100.00,East,99,13.0,36.0,66,0.00,,,0.19,132.000000,,2013-02-10 01:41:00,
2013-02-09 16:51:00,40.0,30.0,-100.00,East,99,13.0,36.0,66,0.00,,,0.19,132.000000,,2013-02-10 01:51:00,
2013-02-09 17:22:00,39.0,31.0,-100.00,East,95,11.0,26.0,73,0.00,,,0.19,34.000000,,2013-02-10 02:22:00,
2013-02-09 17:31:00,39.0,31.0,-100.00,East,95,11.0,26.0,73,0.00,,,0.19,34.000000,,2013-02-10 02:31:00,
2013-02-09 17:41:00,39.0,31.0,-100.00,East,95,11.0,26.0,73,0.00,,,0.19,34.000000,,2013-02-10 02:41:00,
2013-02-09 17:52:00,39.0,31.0,-100.00,East,95,11.0,26.0,73,0.00,,,0.19,34.000000,,2013-02-10 02:52:00,
2013-02-09 18:11:00,38.0,31.0,-100.00,East,101,7.0,24.0,77,0.00,,,0.19,8.000000,,2013-02-10 03:11:00,
2013-02-09 18:21:00,38.0,31.0,-100.00,East,101,7.0,24.0,77,0.00,,,0.19,8.000000,,2013-02-10 03:21:00,
2013-02-09 18:32:00,38.0,31.0,-100.00,East,101,7.0,24.0,77,0.00,,,0.19,8.000000,,2013-02-10 03:32:00,
2013-02-09 18:41:00,38.0,31.0,-100.00,East,101,7.0,24.0,77,0.00,,,0.19,8.000000,,2013-02-10 03:41:00,
2013-02-09 18:51:00,38.0,31.0,-100.00,East,101,7.0,24.0,77,0.00,,,0.19,8.000000,,2013-02-10 03:51:00,
2013-02-09 19:11:00,37.0,33.0,-100.00,NE,49,5.0,19.0,85,0.00,,,0.19,0.000000,,2013-02-10 04:11:00,
2013-02-09 19:21:00,37.0,33.0,-100.00,NE,49,5.0,19.0,85,0.00,,,0.19,0.000000,,2013-02-10 04:21:00,
2013-02-09 19:32:00,37.0,33.0,-100.00,NE,49,5.0,19.0,85,0.00,,,0.19,0.000000,,2013-02-10 04:32:00,
2013-02-09 19:41:00,37.0,33.0,-100.00,NE,49,5.0,19.0,85,0.00,,,0.19,0.000000,,2013-02-10 04:41:00,
2013-02-09 19:51:00,37.0,33.0,-100.00,NE,49,5.0,19.0,85,0.00,,,0.19,0.000000,,2013-02-10 04:51:00,
2013-02-09 20:22:00,37.0,32.0,-100.00,NE,43,5.0,17.0,81,0.01,,,0.20,0.000000,,2013-02-10 05:22:00,
2013-02-09 20:31:00,37.0,32.0,-100.00,NE,43,5.0,17.0,81,0.01,,,0.20,0.000000,,2013-02-10 05:31:00,
2013-02-09 20:41:00,37.0,32.0,-100.00,NE,43,5.0,17.0,81,0.01,,,0.20,0.000000,,2013-02-10 05:41:00,
2013-02-09 20:52:00,37.0,32.0,-100.00,NE,43,5.0,17.0,81,0.01,,,0.20,0.000000,,2013-02-10 05:52:00,
2013-02-09 21:21:00,36.0,32.0,-100.00,East,85,3.0,19.0,86,0.00,,,0.20,0.000000,,2013-02-10 06:21:00,
2013-02-09 21:32:00,36.0,32.0,-100.00,East,85,3.0,19.0,86,0.00,,,0.20,0.000000,,2013-02-10 06:32:00,
2013-02-09 21:42:00,36.0,32.0,-100.00,East,85,3.0,19.0,86,0.00,,,0.20,0.000000,,2013-02-10 06:42:00,
2013-02-09 21:51:00,36.0,32.0,-100.00,East,85,3.0,19.0,86,0.00,,,0.20,0.000000,,2013-02-10 06:51:00,
2013-02-09 22:11:00,36.0,33.0,-100.00,NNW,348,5.0,16.0,90,0.01,,,0.21,0.000000,,2013-02-10 07:11:00,
2013-02-09 22:21:00,36.0,33.0,-100.00,NNW,348,5.0,16.0,90,0.01,,,0.21,0.000000,,2013-02-10 07:21:00,
2013-02-09 22:31:00,36.0,33.0,-100.00,NNW,348,5.0,16.0,90,0.01,,,0.21,0.000000,,2013-02-10 07:31:00,
2013-02-09 22:41:00,36.0,33.0,-100.00,NNW,348,5.0,16.0,90,0.01,,,0.21,0.000000,,2013-02-10 07:41:00,
2013-02-09 22:51:00,36.0,33.0,-100.00,NNW,348,5.0,16.0,90,0.01,,,0.21,0.000000,,2013-02-10 07:51:00,
2013-02-09 23:11:00,37.0,34.0,-100.00,North,356,7.0,11.0,88,0.00,,,0.21,0.000000,,2013-02-10 08:11:00,
2013-02-09 23:21:00,37.0,34.0,-100.00,North,356,7.0,11.0,88,0.00,,,0.21,0.000000,,2013-02-10 08:21:00,
2013-02-09 23:31:00,37.0,34.0,-100.00,North,356,7.0,11.0,88,0.00,,,0.21,0.000000,,2013-02-10 08:31:00,
2013-02-09 23:43:00,37.0,34.0,-100.00,North,356,7.0,11.0,88,0.00,,,0.21,0.000000,,2013-02-10 08:43:00,
2013-02-09 23:52:00,37.0,34.0,-100.00,North,356,7.0,11.0,88,0.00,,,0.21,0.000000,,2013-02-10 08:52:00,